Tracking 28052 objects as of 22-Sep-2023
HD Live streaming from Space Station
objects crossing your sky now

OBJECT A

Track OBJECT A now!
10-day predictions


NORAD ID: 53346
Int'l Code: 2022-090A
Perigee: 506.1 km
Apogee: 513.7 km
Inclination: 97.4 °
Period: 94.7 minutes
Semi major axis: 6880 km
RCS: Unknown
Launch date: August 4, 2022
Source: People's Republic of China (PRC)
Launch site: Taiyaun Space Center, China (TSC)

Note: This is a ROCKET BODY
Your satellite tracking list
Your tracking list is empty




NASA's NSSDC Master Catalog

Two Line Element Set (TLE):
1 53346U 22090A   23265.15855237  .00007091  00000-0  32250-3 0  9990
2 53346  97.4283 338.4095 0005502 276.9115  83.1495 15.21026023 62944
Source of the keplerian elements: AFSPC